Погода во Фрежюсе

Франция     43°25′55″N   6°43′55″E
темп.,
°C
ветер,
м/с
пор.,
м/с
влажн.,
%
обл.,
%
осадки,
мм/ч
давл.,
гПа
погр.,
м
23 апреля, пт
пт2323:00+11ссз22585 0.0 101924
02:00+10ссз22641 0.0 101925
05:00+10ссз22700 0.0 101922
08:00+12с11650 0.0 102051
11:00+18юв21410 0.0 1020846
14:00+19юв43411 0.0 10201188
17:00+18юв32455 0.0 1020802
20:00+14ю116172 0.0 102143
24 апреля, сб
сб2423:00+13сз226258 0.0 102229
02:00+13сз22625 0.0 102228
05:00+12ссз22675 0.0 102116
08:00+14сз11625 0.0 102252
11:00+19ююв2146100 0.0 1022905
14:00+19юв434716 0.0 10211128
17:00+18ююв324996 0.0 1020755
20:00+15ю11645 0.0 102041
25 апреля, вс
вс2523:00+13сз22695 0.0 102017
02:00+12сз1175100 0.0 101921
05:00+12сз117585 0.0 101822
08:00+14сз016850 0.0 101865
11:00+19вюв2148100 0.0 1018820
14:00+20ююв4348100 0.0 1017971
17:00+17юв2255100 0.0 1016346
20:00+15ююв116692 0.0 101643
26 апреля, пн
пн2623:00+12с117332 0.0 101711
02:00+12сз118198 0.1 101615
05:00+11всв228933 0.4 101348
08:00+13св1383100 0.4 1013157
11:00+18в584699 0.0 1011780
14:00+18в71153100 0.1 1009859
17:00+17всв8135643 0.7 1007833
20:00+14всв61272100 1.4 1006617
27 апреля, вт
вт2723:00+14всв61474100 0.3 1006886
02:00+14всв51274100 1.1 1004836
05:00+13всв51287100 0.3 1002788
08:00+13всв3890100 2.5 1001443
11:00+12св3894100 2.4 1002477
14:00+12всв3992100 4.4 1001538
17:00+12юз1395100 1.4 1002198
20:00+12юз2497100 1.7 1002220